Tracking 34305 objects as of 6-Jun-2026
HD Live streaming from Space Station
objects crossing your sky now

QIANFAN-134

Track QIANFAN-134 now!
10-day predictions
QIANFAN-134 is classified as:


NORAD ID: 69080
Int'l Code: 2026-104H
Perigee: 830.8 km
Apogee: 838.7 km
Inclination: 89.0 °
Period: 101.5 minutes
Semi major axis: 7205 km
RCS: Unknown
Launch date: May 12, 2026
Source: People's Republic of China (PRC)
Launch site: Taiyaun Space Center, China (TSC)
Your satellite tracking list
Your tracking list is empty




NASA's NSSDC Master Catalog

Two Line Element Set (TLE):
1 69080U 26104H   26156.89710155  .00000129  00000-0  54501-4 0  9993
2 69080  88.9863 342.9020 0005492 127.8898 232.2790 14.19324488  3484
Source of the keplerian elements: AFSPC